EWG4EK LEPA-EDDL

Flight info

Callsign EWG4EK
Flight time 1h 58m
Altitude 40000
Route MEROS5A MEROS N853 LUMAS DCT MAXIR DCT LUSOL DCT BODRU DCT OKTET DCT IRMAR DCT KINES DCT VANAS DCT MOBLO DCT UBIMA DCT GILIR DCT PENDU DCT IXILU DCT EPL DCT ROUSY DCT DIK N853 ARCKY T853 NVO T857 BIKMU
Aircraft A343/H-SDE2E3FGHIJ4J5M1RWXY/LB1D1

Departure

Time 2026-05-04 17:26
Airport Palma de Mallorca Airport (LEPA)

Arrival

Time 2026-05-04 19:25
Airport Düsseldorf Airport (EDDL)
Time Latitude Longitude Altitude Speed Heading
2026-05-04 16:28 39.55027 2.72737 34 ft 0 kts 138°
2026-05-04 16:29 39.55029 2.72735 34 ft 0 kts 138°
2026-05-04 16:48 39.55029 2.72734 34 ft 0 kts 138°
2026-05-04 16:50 39.55030 2.72734 34 ft 0 kts 138°
2026-05-04 17:03 39.55030 2.72733 34 ft 0 kts 138°
2026-05-04 17:07 39.55031 2.72733 34 ft 0 kts 138°
2026-05-04 17:09 39.55035 2.72728 34 ft 4 kts 138°
2026-05-04 17:09 39.55051 2.72709 32 ft 4 kts 133°
2026-05-04 17:09 39.55064 2.72680 33 ft 4 kts 96°
2026-05-04 17:10 39.55051 2.72615 33 ft 4 kts 60°
2026-05-04 17:10 39.55039 2.72589 33 ft 0 kts 59°
2026-05-04 17:15 39.55056 2.72627 33 ft 12 kts 59°
2026-05-04 17:15 39.55188 2.72908 34 ft 21 kts 58°
2026-05-04 17:16 39.55307 2.73026 34 ft 12 kts 328°
2026-05-04 17:16 39.55520 2.73213 34 ft 26 kts 58°
2026-05-04 17:17 39.55616 2.73418 34 ft 24 kts 58°
2026-05-04 17:17 39.55898 2.74013 34 ft 21 kts 58°
2026-05-04 17:18 39.55948 2.74119 34 ft 11 kts 58°
2026-05-04 17:18 39.55991 2.74208 34 ft 0 kts 59°
2026-05-04 17:20 39.55995 2.74218 34 ft 5 kts 59°
2026-05-04 17:20 39.56029 2.74291 34 ft 11 kts 59°
2026-05-04 17:21 39.56124 2.74454 34 ft 5 kts 22°
2026-05-04 17:21 39.56127 2.74455 34 ft 0 kts 19°
2026-05-04 17:24 39.56243 2.74293 34 ft 12 kts 242°
2026-05-04 17:25 39.56222 2.74247 34 ft 0 kts 239°
2026-05-04 17:25 39.56215 2.74232 34 ft 10 kts 239°
2026-05-04 17:26 39.55706 2.73160 34 ft 123 kts 238°
2026-05-04 17:26 39.54023 2.69698 1341 ft 170 kts 235°
2026-05-04 17:27 39.52624 2.66817 2361 ft 205 kts 238°
2026-05-04 17:27 39.51123 2.63624 4120 ft 209 kts 239°
2026-05-04 17:28 39.49721 2.60358 6122 ft 203 kts 240°
2026-05-04 17:29 39.47675 2.55577 8578 ft 212 kts 241°
2026-05-04 17:29 39.45084 2.50613 10424 ft 248 kts 218°
2026-05-04 17:30 39.39623 2.51707 11364 ft 342 kts 135°
2026-05-04 17:31 39.37768 2.57715 12437 ft 373 kts 112°
2026-05-04 17:31 39.36962 2.67923 14463 ft 395 kts 85°
2026-05-04 17:32 39.37643 2.75041 15742 ft 406 kts 84°
2026-05-04 17:33 39.38770 2.86146 17629 ft 422 kts 84°
2026-05-04 17:33 39.39155 2.89932 18244 ft 427 kts 84°
2026-05-04 17:34 39.40330 3.01543 19842 ft 443 kts 84°
2026-05-04 17:34 39.40731 3.05526 20351 ft 447 kts 85°
2026-05-04 17:35 39.41942 3.17661 21899 ft 462 kts 85°
2026-05-04 17:35 39.43176 3.25937 22877 ft 476 kts 71°
2026-05-04 17:35 39.44614 3.29803 23378 ft 481 kts 60°
2026-05-04 17:36 39.46320 3.33547 23777 ft 485 kts 59°
2026-05-04 17:36 39.48070 3.37305 24183 ft 488 kts 59°
2026-05-04 17:36 39.49824 3.41088 24640 ft 491 kts 59°
2026-05-04 17:36 39.51563 3.44858 25058 ft 493 kts 59°
2026-05-04 17:37 39.53324 3.48687 25487 ft 496 kts 59°
2026-05-04 17:37 39.55098 3.52555 25904 ft 499 kts 60°
2026-05-04 17:37 39.56874 3.56434 26305 ft 501 kts 60°
2026-05-04 17:37 39.58661 3.60345 26704 ft 504 kts 60°
2026-05-04 17:38 39.60577 3.64096 27066 ft 507 kts 51°
2026-05-04 17:38 39.63028 3.67411 27423 ft 508 kts 37°
2026-05-04 17:38 39.65913 3.70061 27791 ft 508 kts 29°
2026-05-04 17:38 39.68931 3.72478 28138 ft 510 kts 28°
2026-05-04 17:39 39.75053 3.77267 28886 ft 515 kts 28°
2026-05-04 17:39 39.78099 3.79650 29178 ft 518 kts 28°
2026-05-04 17:39 39.81205 3.82081 29474 ft 521 kts 28°
2026-05-04 17:40 39.84319 3.84523 29794 ft 524 kts 28°
2026-05-04 17:40 39.87454 3.86984 30097 ft 526 kts 28°
2026-05-04 17:40 39.90606 3.89460 30377 ft 529 kts 28°
2026-05-04 17:40 39.93728 3.91916 30646 ft 531 kts 28°
2026-05-04 17:41 39.96895 3.94410 30959 ft 533 kts 28°
2026-05-04 17:41 40.00078 3.96919 31190 ft 536 kts 28°
2026-05-04 17:41 40.03263 3.99433 31444 ft 538 kts 28°
2026-05-04 17:41 40.06471 4.01968 31718 ft 539 kts 28°
2026-05-04 17:42 40.09682 4.04509 32094 ft 537 kts 28°
2026-05-04 17:42 40.12891 4.07050 32471 ft 536 kts 28°
2026-05-04 17:42 40.16083 4.09582 32822 ft 536 kts 28°
2026-05-04 17:42 40.19230 4.12079 33178 ft 535 kts 28°
2026-05-04 17:43 40.22416 4.14610 33533 ft 534 kts 28°
2026-05-04 17:43 40.25592 4.17136 33859 ft 533 kts 28°
2026-05-04 17:43 40.28761 4.19661 34136 ft 533 kts 27°
2026-05-04 17:43 40.31925 4.22183 34472 ft 530 kts 27°
2026-05-04 17:44 40.35088 4.24708 34816 ft 528 kts 27°
2026-05-04 17:44 40.38193 4.27189 35118 ft 527 kts 27°
2026-05-04 17:44 40.41328 4.29696 35444 ft 526 kts 27°
2026-05-04 17:44 40.44460 4.32203 35706 ft 526 kts 27°
2026-05-04 17:45 40.47602 4.34650 35963 ft 523 kts 24°
2026-05-04 17:45 40.50862 4.36542 36231 ft 514 kts 12°
2026-05-04 17:45 40.54299 4.37803 36522 ft 508 kts
2026-05-04 17:45 40.57755 4.38762 36804 ft 504 kts
2026-05-04 17:46 40.61167 4.39561 37079 ft 502 kts
2026-05-04 17:46 40.64605 4.40313 37349 ft 501 kts
2026-05-04 17:46 40.68042 4.41064 37626 ft 500 kts
2026-05-04 17:46 40.71473 4.41833 37885 ft 499 kts
2026-05-04 17:47 40.74891 4.42622 38148 ft 498 kts
2026-05-04 17:47 40.78306 4.43428 38415 ft 497 kts
2026-05-04 17:47 40.81712 4.44243 38650 ft 496 kts
2026-05-04 17:47 40.85104 4.45061 38842 ft 495 kts
2026-05-04 17:48 40.88499 4.45882 38996 ft 495 kts
2026-05-04 17:48 40.91850 4.46691 39161 ft 494 kts
2026-05-04 17:48 40.94095 4.47233 39273 ft 494 kts
2026-05-04 17:48 40.98623 4.48333 39496 ft 494 kts
2026-05-04 17:49 41.02004 4.49156 39663 ft 493 kts
2026-05-04 17:49 41.05389 4.49981 39843 ft 492 kts
2026-05-04 17:49 41.12130 4.51616 39930 ft 497 kts
2026-05-04 17:50 41.18966 4.53281 39924 ft 498 kts
2026-05-04 17:50 41.25736 4.54940 39925 ft 497 kts
2026-05-04 17:51 41.32540 4.56607 39925 ft 497 kts
2026-05-04 17:51 41.39350 4.58277 39924 ft 496 kts
2026-05-04 17:52 41.46118 4.59941 39930 ft 496 kts
2026-05-04 17:52 41.52925 4.61617 39930 ft 496 kts
2026-05-04 17:53 41.59691 4.63287 39927 ft 496 kts
2026-05-04 17:53 41.66449 4.64959 39928 ft 495 kts
2026-05-04 17:54 41.73191 4.67153 39930 ft 503 kts 18°
2026-05-04 17:54 41.79401 4.71448 39935 ft 508 kts 26°
2026-05-04 17:55 41.85492 4.76311 39938 ft 509 kts 28°
2026-05-04 17:55 41.91544 4.81256 39941 ft 509 kts 28°
2026-05-04 17:56 41.97607 4.86190 39936 ft 509 kts 27°
2026-05-04 17:56 42.03650 4.91086 39941 ft 509 kts 27°
2026-05-04 17:57 42.09723 4.96009 39949 ft 509 kts 27°
2026-05-04 17:57 42.15801 5.00945 39947 ft 511 kts 27°
2026-05-04 17:58 42.21869 5.05888 39949 ft 511 kts 28°
2026-05-04 17:58 42.27960 5.10862 39956 ft 511 kts 28°
2026-05-04 17:59 42.34008 5.15812 39957 ft 511 kts 28°
2026-05-04 18:00 42.43147 5.23311 39969 ft 511 kts 28°
2026-05-04 18:00 42.49235 5.28321 39972 ft 511 kts 28°
2026-05-04 18:01 42.55280 5.33308 39953 ft 511 kts 28°
2026-05-04 18:01 42.60333 5.37487 39975 ft 510 kts 28°
2026-05-04 18:02 42.69432 5.45029 39984 ft 510 kts 28°
2026-05-04 18:02 42.75478 5.50055 39990 ft 510 kts 28°
2026-05-04 18:03 42.81511 5.55082 39990 ft 510 kts 28°
2026-05-04 18:03 42.87579 5.60150 39990 ft 510 kts 28°
2026-05-04 18:04 42.93630 5.65215 40001 ft 508 kts 28°
2026-05-04 18:05 43.02638 5.72779 39994 ft 508 kts 28°
2026-05-04 18:05 43.08665 5.77853 40014 ft 507 kts 28°
2026-05-04 18:06 43.17631 5.85425 40000 ft 505 kts 28°
2026-05-04 18:06 43.23635 5.90509 40019 ft 505 kts 28°
2026-05-04 18:07 43.29586 5.95560 40026 ft 505 kts 28°
2026-05-04 18:07 43.35575 6.00621 40019 ft 503 kts 26°
2026-05-04 18:08 43.41997 6.03979 40024 ft 491 kts
2026-05-04 18:08 43.48739 6.05090 40029 ft 486 kts 360°
2026-05-04 18:09 43.62210 6.06367 40028 ft 485 kts 359°
2026-05-04 18:10 43.68922 6.07011 40039 ft 485 kts 359°
2026-05-04 18:10 43.75669 6.07989 40038 ft 490 kts
2026-05-04 18:11 43.82099 6.11190 40040 ft 496 kts 21°
2026-05-04 18:11 43.88339 6.15327 40048 ft 496 kts 23°
2026-05-04 18:12 43.94526 6.19618 40040 ft 496 kts 23°
2026-05-04 18:12 44.00711 6.23899 40043 ft 496 kts 23°
2026-05-04 18:13 44.07028 6.27673 40048 ft 491 kts 12°
2026-05-04 18:13 44.13658 6.28813 40048 ft 480 kts 355°
2026-05-04 18:14 44.17005 6.28731 40045 ft 479 kts 353°
2026-05-04 18:14 44.23670 6.28222 40048 ft 479 kts 352°
2026-05-04 18:15 44.36971 6.27081 40071 ft 480 kts 352°
2026-05-04 18:16 44.43618 6.26568 40071 ft 480 kts 352°
2026-05-04 18:16 44.50293 6.26064 40082 ft 481 kts 352°
2026-05-04 18:17 44.60314 6.25301 40101 ft 481 kts 352°
2026-05-04 18:18 44.70374 6.24532 40110 ft 481 kts 352°
2026-05-04 18:18 44.77042 6.24023 40105 ft 482 kts 352°
2026-05-04 18:19 44.87073 6.23246 40076 ft 481 kts 352°
2026-05-04 18:19 44.93784 6.22726 40081 ft 481 kts 352°
2026-05-04 18:20 45.00452 6.22213 40080 ft 482 kts 353°
2026-05-04 18:20 45.07154 6.21694 40076 ft 481 kts 352°
2026-05-04 18:21 45.13826 6.21176 40073 ft 482 kts 352°
2026-05-04 18:21 45.20547 6.20653 40069 ft 482 kts 352°
2026-05-04 18:22 45.27213 6.20133 40058 ft 482 kts 352°
2026-05-04 18:22 45.33921 6.19607 40049 ft 482 kts 352°
2026-05-04 18:23 45.40642 6.19077 40042 ft 484 kts 353°
2026-05-04 18:23 45.47331 6.18548 40030 ft 484 kts 353°
2026-05-04 18:24 45.54084 6.18017 40024 ft 484 kts 353°
2026-05-04 18:24 45.60781 6.17491 40033 ft 484 kts 353°
2026-05-04 18:25 45.67534 6.16958 40025 ft 485 kts 353°
2026-05-04 18:25 45.74240 6.16424 40027 ft 485 kts 353°
2026-05-04 18:26 45.80987 6.15886 40030 ft 485 kts 353°
2026-05-04 18:26 45.87693 6.15352 40022 ft 484 kts 353°
2026-05-04 18:27 45.94414 6.14814 40019 ft 484 kts 353°
2026-05-04 18:27 46.01150 6.14273 40028 ft 484 kts 353°
2026-05-04 18:28 46.07867 6.13733 40023 ft 485 kts 353°
2026-05-04 18:28 46.14587 6.13191 40019 ft 485 kts 353°
2026-05-04 18:29 46.21292 6.12650 40024 ft 485 kts 353°
2026-05-04 18:29 46.28016 6.12106 40023 ft 485 kts 353°
2026-05-04 18:30 46.38069 6.11289 40025 ft 485 kts 353°
2026-05-04 18:31 46.44780 6.10741 40035 ft 485 kts 353°
2026-05-04 18:31 46.51439 6.10198 40030 ft 484 kts 353°
2026-05-04 18:32 46.58260 6.09640 40027 ft 484 kts 353°
2026-05-04 18:32 46.64962 6.09090 40027 ft 484 kts 353°
2026-05-04 18:33 46.71707 6.08535 40034 ft 484 kts 353°
2026-05-04 18:33 46.78429 6.07979 40020 ft 486 kts 353°
2026-05-04 18:34 46.85184 6.07420 40019 ft 486 kts 353°
2026-05-04 18:34 46.91903 6.06864 40022 ft 485 kts 353°
2026-05-04 18:35 46.98644 6.06304 40004 ft 485 kts 353°
2026-05-04 18:35 47.05391 6.05741 40010 ft 485 kts 353°
2026-05-04 18:36 47.12147 6.05177 40006 ft 485 kts 353°
2026-05-04 18:36 47.18853 6.04615 40011 ft 485 kts 353°
2026-05-04 18:37 47.25606 6.04047 40010 ft 485 kts 353°
2026-05-04 18:37 47.32315 6.03483 40007 ft 485 kts 353°
2026-05-04 18:38 47.39077 6.03074 40006 ft 486 kts 357°
2026-05-04 18:38 47.45831 6.03296 40009 ft 487 kts 359°
2026-05-04 18:39 47.52611 6.03600 40005 ft 486 kts 358°
2026-05-04 18:39 47.59399 6.03814 40004 ft 486 kts 358°
2026-05-04 18:40 47.66133 6.03971 40006 ft 486 kts 358°
2026-05-04 18:40 47.72900 6.04118 40000 ft 485 kts 358°
2026-05-04 18:41 47.79612 6.04321 39997 ft 485 kts 358°
2026-05-04 18:41 47.86374 6.04618 40012 ft 485 kts 359°
2026-05-04 18:42 47.93092 6.04916 40007 ft 485 kts 359°
2026-05-04 18:42 47.99835 6.05202 40003 ft 484 kts 359°
2026-05-04 18:43 48.06590 6.05481 40005 ft 484 kts 359°
2026-05-04 18:43 48.13301 6.05758 39996 ft 484 kts 359°
2026-05-04 18:44 48.20050 6.06040 39994 ft 484 kts 359°
2026-05-04 18:44 48.26759 6.06321 39994 ft 484 kts 359°
2026-05-04 18:45 48.33495 6.06603 39993 ft 483 kts 359°
2026-05-04 18:45 48.40231 6.06886 39993 ft 483 kts 359°
2026-05-04 18:46 48.46966 6.07170 39994 ft 483 kts 359°
2026-05-04 18:46 48.53664 6.07452 39989 ft 483 kts 359°
2026-05-04 18:47 48.60403 6.07737 40011 ft 483 kts 359°
2026-05-04 18:47 48.67101 6.08021 39993 ft 483 kts 359°
2026-05-04 18:48 48.73834 6.08308 39993 ft 484 kts 359°
2026-05-04 18:48 48.80545 6.08594 39992 ft 484 kts 359°
2026-05-04 18:49 48.87278 6.08882 39969 ft 484 kts 359°
2026-05-04 18:49 48.93992 6.09169 39973 ft 484 kts 359°
2026-05-04 18:50 48.99594 6.09410 39968 ft 483 kts 359°
2026-05-04 18:50 49.06331 6.09701 39968 ft 483 kts 359°
2026-05-04 18:51 49.13035 6.09991 39972 ft 483 kts 359°
2026-05-04 18:51 49.19769 6.10282 39972 ft 484 kts 359°
2026-05-04 18:52 49.26508 6.10575 39980 ft 484 kts 359°
2026-05-04 18:52 49.33220 6.10868 39845 ft 482 kts 359°
2026-05-04 18:52 49.36570 6.11016 39628 ft 475 kts 359°
2026-05-04 18:53 49.39869 6.11161 39106 ft 476 kts 359°
2026-05-04 18:53 49.43193 6.11305 38474 ft 480 kts 359°
2026-05-04 18:53 49.46544 6.11451 37819 ft 481 kts 359°
2026-05-04 18:53 49.49850 6.11594 37259 ft 480 kts 359°
2026-05-04 18:54 49.53195 6.11726 36678 ft 480 kts 359°
2026-05-04 18:54 49.56549 6.11853 36075 ft 481 kts 359°
2026-05-04 18:54 49.59914 6.11977 35450 ft 483 kts 359°
2026-05-04 18:54 49.63283 6.12100 34771 ft 487 kts 359°
2026-05-04 18:55 49.66695 6.12228 34064 ft 491 kts 359°
2026-05-04 18:55 49.73545 6.12486 32517 ft 497 kts 359°
2026-05-04 18:55 49.77024 6.12619 31738 ft 500 kts 359°
2026-05-04 18:56 49.80514 6.12754 31113 ft 500 kts 359°
2026-05-04 18:56 49.83977 6.12890 30579 ft 497 kts 359°
2026-05-04 18:56 49.87430 6.13023 30022 ft 495 kts 359°
2026-05-04 18:56 49.90869 6.13100 29420 ft 492 kts 358°
2026-05-04 18:57 49.94287 6.13117 28853 ft 488 kts 358°
2026-05-04 18:57 49.97629 6.13111 28315 ft 484 kts 358°
2026-05-04 18:57 50.01002 6.13103 27768 ft 481 kts 358°
2026-05-04 18:57 50.04332 6.13101 27230 ft 477 kts 358°
2026-05-04 18:58 50.07647 6.13104 26677 ft 474 kts 358°
2026-05-04 18:58 50.10946 6.13116 26129 ft 471 kts 358°
2026-05-04 18:58 50.14225 6.13132 25580 ft 468 kts 358°
2026-05-04 18:58 50.17465 6.13150 25042 ft 465 kts 358°
2026-05-04 18:59 50.20602 6.13169 24498 ft 462 kts 358°
2026-05-04 18:59 50.23865 6.13189 23962 ft 459 kts 358°
2026-05-04 18:59 50.27057 6.13283 23377 ft 457 kts
2026-05-04 18:59 50.30173 6.14304 22794 ft 457 kts 19°
2026-05-04 19:00 50.33036 6.16395 22235 ft 453 kts 28°
2026-05-04 19:00 50.35747 6.18868 21693 ft 448 kts 32°
2026-05-04 19:00 50.38323 6.21478 21168 ft 444 kts 34°
2026-05-04 19:00 50.40873 6.24181 20638 ft 440 kts 34°
2026-05-04 19:01 50.43400 6.26887 20113 ft 436 kts 34°
2026-05-04 19:01 50.45902 6.29551 19601 ft 432 kts 34°
2026-05-04 19:01 50.48399 6.32183 19011 ft 431 kts 34°
2026-05-04 19:01 50.50858 6.34729 18706 ft 413 kts 33°
2026-05-04 19:02 50.53221 6.36994 18360 ft 390 kts 31°
2026-05-04 19:02 50.55522 6.39080 17979 ft 371 kts 30°
2026-05-04 19:02 50.57718 6.41033 17611 ft 355 kts 30°
2026-05-04 19:02 50.59820 6.42907 17268 ft 340 kts 30°
2026-05-04 19:03 50.61832 6.44717 16984 ft 326 kts 31°
2026-05-04 19:03 50.63729 6.46443 16720 ft 313 kts 31°
2026-05-04 19:03 50.65351 6.47932 16454 ft 305 kts 31°
2026-05-04 19:03 50.67171 6.49612 16021 ft 300 kts 31°
2026-05-04 19:04 50.68961 6.51271 15609 ft 297 kts 31°
2026-05-04 19:04 50.70737 6.52919 15212 ft 293 kts 31°
2026-05-04 19:04 50.72463 6.54521 14832 ft 290 kts 31°
2026-05-04 19:04 50.74196 6.56132 14413 ft 288 kts 31°
2026-05-04 19:05 50.75932 6.57747 13885 ft 291 kts 31°
2026-05-04 19:05 50.77672 6.59366 13430 ft 289 kts 31°
2026-05-04 19:05 50.79402 6.60976 13056 ft 286 kts 31°
2026-05-04 19:05 50.81159 6.62473 12970 ft 287 kts 24°
2026-05-04 19:06 50.83039 6.63540 12962 ft 287 kts 13°
2026-05-04 19:06 50.84986 6.64228 12967 ft 287 kts 10°
2026-05-04 19:06 50.86937 6.64751 12965 ft 287 kts
2026-05-04 19:06 50.88911 6.65188 12949 ft 285 kts
2026-05-04 19:07 50.90864 6.65593 12844 ft 285 kts
2026-05-04 19:07 50.92846 6.66003 12573 ft 286 kts
2026-05-04 19:07 50.94802 6.66408 12296 ft 287 kts
2026-05-04 19:07 50.96785 6.66819 12024 ft 288 kts
2026-05-04 19:08 50.98769 6.67229 11718 ft 283 kts
2026-05-04 19:08 51.00725 6.67636 11445 ft 281 kts
2026-05-04 19:08 51.02661 6.68038 11183 ft 281 kts
2026-05-04 19:08 51.04596 6.68440 10991 ft 280 kts
2026-05-04 19:09 51.06519 6.68838 10963 ft 282 kts
2026-05-04 19:09 51.08460 6.69242 10965 ft 280 kts
2026-05-04 19:09 51.10396 6.69646 10969 ft 280 kts
2026-05-04 19:09 51.12324 6.70054 10961 ft 280 kts
2026-05-04 19:10 51.14161 6.71036 10972 ft 279 kts 32°
2026-05-04 19:10 51.15712 6.72870 10969 ft 275 kts 41°
2026-05-04 19:10 51.17143 6.74843 10822 ft 275 kts 43°
2026-05-04 19:10 51.18581 6.76864 10569 ft 276 kts 43°
2026-05-04 19:11 51.20038 6.78921 10299 ft 277 kts 43°
2026-05-04 19:11 51.21429 6.80887 10034 ft 275 kts 43°
2026-05-04 19:11 51.22843 6.82886 9734 ft 270 kts 43°
2026-05-04 19:11 51.24248 6.84874 9460 ft 269 kts 43°
2026-05-04 19:12 51.25605 6.86799 9176 ft 268 kts 43°
2026-05-04 19:12 51.28340 6.90752 8598 ft 265 kts 49°
2026-05-04 19:12 51.29408 6.93133 8333 ft 264 kts 61°
2026-05-04 19:13 51.30330 6.95668 8065 ft 262 kts 63°
2026-05-04 19:13 51.31218 6.98183 7965 ft 260 kts 63°
2026-05-04 19:13 51.32107 7.00711 7965 ft 260 kts 63°
2026-05-04 19:13 51.32993 7.03228 7964 ft 259 kts 63°
2026-05-04 19:14 51.33881 7.05754 7948 ft 261 kts 63°
2026-05-04 19:14 51.34758 7.08252 7727 ft 260 kts 63°
2026-05-04 19:14 51.35642 7.10769 7451 ft 259 kts 63°
2026-05-04 19:14 51.36518 7.13275 7073 ft 255 kts 63°
2026-05-04 19:15 51.37365 7.15754 6715 ft 253 kts 63°
2026-05-04 19:15 51.38207 7.18224 6353 ft 252 kts 63°
2026-05-04 19:15 51.39050 7.20615 5954 ft 252 kts 58°
2026-05-04 19:15 51.40335 7.22523 5532 ft 254 kts 26°
2026-05-04 19:16 51.41904 7.23187 5157 ft 248 kts 357°
2026-05-04 19:16 51.43547 7.22561 4769 ft 243 kts 330°
2026-05-04 19:16 51.44997 7.21212 4362 ft 244 kts 324°
2026-05-04 19:16 51.46408 7.19671 3957 ft 245 kts 320°
2026-05-04 19:17 51.47448 7.17561 3548 ft 241 kts 288°
2026-05-04 19:17 51.47517 7.14988 3158 ft 229 kts 249°
2026-05-04 19:17 51.46675 7.12972 2983 ft 209 kts 225°
2026-05-04 19:17 51.45708 7.11311 2980 ft 199 kts 227°
2026-05-04 19:18 51.44862 7.09678 2973 ft 180 kts 231°
2026-05-04 19:18 51.44121 7.08118 3013 ft 174 kts 231°
2026-05-04 19:18 51.43406 7.06598 3018 ft 171 kts 231°
2026-05-04 19:18 51.42684 7.05066 2983 ft 172 kts 231°
2026-05-04 19:19 51.41916 7.03581 3007 ft 173 kts 225°
2026-05-04 19:19 51.41127 7.02115 3008 ft 174 kts 230°
2026-05-04 19:19 51.40405 7.00551 3008 ft 174 kts 233°
2026-05-04 19:19 51.39718 6.98956 2987 ft 174 kts 233°
2026-05-04 19:20 51.39032 6.97367 2989 ft 174 kts 233°
2026-05-04 19:20 51.38321 6.95817 2960 ft 174 kts 230°
2026-05-04 19:20 51.37580 6.94288 2766 ft 174 kts 231°
2026-05-04 19:20 51.36850 6.92738 2511 ft 173 kts 231°
2026-05-04 19:21 51.36134 6.91225 2258 ft 166 kts 231°
2026-05-04 19:21 51.35439 6.89762 2041 ft 168 kts 231°
2026-05-04 19:21 51.34731 6.88269 1809 ft 168 kts 231°
2026-05-04 19:21 51.34034 6.86799 1574 ft 161 kts 231°
2026-05-04 19:22 51.33386 6.85431 1371 ft 146 kts 229°
2026-05-04 19:22 51.32805 6.84209 1173 ft 132 kts 230°
2026-05-04 19:22 51.32252 6.83047 1010 ft 132 kts 230°
2026-05-04 19:22 51.31709 6.81882 812 ft 132 kts 230°
2026-05-04 19:23 51.31171 6.80702 636 ft 131 kts 229°
2026-05-04 19:23 51.30610 6.79543 453 ft 132 kts 230°
2026-05-04 19:23 51.30096 6.78456 292 ft 132 kts 231°
2026-05-04 19:23 51.29720 6.77703 177 ft 130 kts 229°
2026-05-04 19:24 51.29317 6.76849 145 ft 118 kts 231°
2026-05-04 19:24 51.29019 6.76232 138 ft 89 kts 233°
2026-05-04 19:24 51.28983 6.76156 138 ft 85 kts 233°
2026-05-04 19:24 51.28892 6.75968 130 ft 67 kts 231°
2026-05-04 19:25 51.28687 6.75537 131 ft 46 kts 233°
2026-05-04 19:25 51.28589 6.75333 127 ft 45 kts 232°
2026-05-04 19:25 51.28428 6.74996 126 ft 25 kts 232°
2026-05-04 19:25 51.28312 6.74977 122 ft 20 kts 156°
2026-05-04 19:26 51.28214 6.75052 122 ft 14 kts 153°
2026-05-04 19:26 51.28180 6.75079 122 ft 0 kts 153°
2026-05-04 19:30 51.28176 6.75082 122 ft 1 kts 153°
2026-05-04 19:32 51.28160 6.75095 123 ft 7 kts 153°
2026-05-04 19:32 51.28115 6.75130 122 ft 7 kts 153°
2026-05-04 19:33 51.28093 6.75148 123 ft 2 kts 154°
2026-05-04 19:33 51.28091 6.75149 123 ft 0 kts 154°
2026-05-04 19:38 51.28085 6.75154 122 ft 5 kts 154°
2026-05-04 19:38 51.28021 6.75204 124 ft 15 kts 153°
2026-05-04 19:39 51.27929 6.75278 124 ft 13 kts 153°
2026-05-04 19:39 51.27850 6.75342 125 ft 14 kts 153°
2026-05-04 19:39 51.27770 6.75405 124 ft 13 kts 154°
2026-05-04 19:39 51.27701 6.75448 128 ft 10 kts 172°
2026-05-04 19:40 51.27644 6.75454 126 ft 7 kts 165°
2026-05-04 19:40 51.27606 6.75475 126 ft 5 kts 160°
2026-05-04 19:40 51.27584 6.75489 130 ft 2 kts 156°
2026-05-04 19:40 51.27580 6.75494 129 ft 0 kts 152°
2026-05-04 19:41 51.27567 6.75507 128 ft 3 kts 146°
2026-05-04 19:41 51.27555 6.75511 131 ft 1 kts 184°
2026-05-04 19:41 51.27542 6.75482 128 ft 6 kts 238°
2026-05-04 19:41 51.27537 6.75464 131 ft 2 kts 243°
2026-05-04 19:42 51.27535 6.75458 131 ft 0 kts 243°
2026-05-04 19:42 51.27535 6.75459 131 ft 0 kts 243°